Weather History for KPIL - March, 2013

Change the Weather History Date:

Friday, March 8, 2013

  Actual Average Record
Temperature  
Mean Temperature 74 °F -  
Max Temperature 78 °F - - ()
Min Temperature 71 °F - - ()
Cooling Degree Days 10    
Growing Degree Days 24 (Base 50)    
Moisture  
Dew Point 65 °F    
Average Humidity 74    
Maximum Humidity 81    
Minimum Humidity 61    
Precipitation  
Precipitation 0.00 in - - ()
Sea Level Pressure  
Sea Level Pressure 30.05 in    
Wind  
Wind Speed 16 mph (SE)    
Max Wind Speed 26 mph    
Max Gust Speed 31 mph    
Visibility 8 miles    
Events Rain    
T = Trace of Precipitation, MM = Missing Value Source: NWS Daily Summary

Daily Weather History Graph

Daily Weather History Graph

Search for Another Location

Airport or City:

Trip Planner

Search our weather history database for the weather conditions in past years. The results will help you decide how hot, cold, wet, or windy it might be!

Date:

Astronomy

Mar. 08, 2013 Rise Set
Actual Time 6:45 AM CST 6:34 PM CST
Civil Twilight 6:22 AM CST 6:57 PM CST
Nautical Twilight 5:55 AM CST 7:24 PM CST
Astronomical Twilight 5:29 AM CST 7:51 PM CST
Moon 4:15 AM CST (3/8) 3:44 PM CST (3/8)
Length of Visible Light 12h 35m
Length of Day
11h 49m
Waning Crescent, 11% of the Moon is Illuminated
Mar 8
Waning Crescent
Mar 11
New
Mar 19
First Quarter
Mar 27
Full
Apr 2
Last Quarter

Hourly Weather History & Observations

Time (CST) Temp. Dew Point Humidity Pressure Visibility Wind Dir Wind Speed Gust Speed Precip Events Conditions
12:35 AM 71.6 °F 64.4 °F 78% 30.11 in 8.0 mi ESE 16.1 mph - N/A   Overcast
12:53 AM 71.1 °F 64.0 °F 78% 30.11 in 8.0 mi SE 13.8 mph - N/A   Overcast
1:22 AM 71.6 °F 64.4 °F 78% 30.09 in 7.0 mi SE 13.8 mph - 0.00 in Rain Light Rain
1:53 AM 71.1 °F 64.9 °F 81% 30.08 in 8.0 mi SE 15.0 mph - 0.00 in   Overcast
2:53 AM 72.0 °F 64.9 °F 78% 30.06 in 8.0 mi SE 15.0 mph 23.0 mph N/A   Overcast
3:53 AM 72.0 °F 64.9 °F 78% 30.05 in 8.0 mi SSE 11.5 mph - N/A   Overcast
4:53 AM 72.0 °F 64.0 °F 76% 30.04 in 8.0 mi SSE 11.5 mph - N/A   Overcast
5:19 AM 71.6 °F 64.4 °F 78% 30.05 in 8.0 mi SSE 11.5 mph - N/A   Overcast
5:32 AM 71.6 °F 64.4 °F 78% 30.06 in 8.0 mi SSE 12.7 mph - N/A   Overcast
5:53 AM 72.0 °F 64.9 °F 78% 30.05 in 8.0 mi SSE 13.8 mph - N/A   Overcast
6:08 AM 71.6 °F 64.4 °F 78% 30.06 in 8.0 mi SSE 11.5 mph - N/A   Mostly Cloudy
6:53 AM 71.1 °F 64.9 °F 81% 30.06 in 8.0 mi SSE 11.5 mph - N/A   Mostly Cloudy
7:53 AM 72.0 °F 64.9 °F 78% 30.08 in 7.0 mi SSE 13.8 mph - N/A   Partly Cloudy
8:53 AM 75.0 °F 64.9 °F 71% 30.08 in 7.0 mi SE 17.3 mph - N/A   Clear
9:53 AM 75.9 °F 64.0 °F 67% 30.07 in 9.0 mi SE 19.6 mph 27.6 mph 0.00 in Rain Light Rain
10:53 AM 77.0 °F 64.9 °F 66% 30.08 in 9.0 mi SSE 23.0 mph 31.1 mph 0.00 in Rain Light Rain
11:44 AM 78.8 °F 64.4 °F 61% 30.07 in 9.0 mi SSE 19.6 mph 28.8 mph 0.00 in Rain Light Rain
11:53 AM 78.1 °F 64.9 °F 64% 30.07 in 9.0 mi SE 21.9 mph 29.9 mph 0.00 in Rain Light Rain
12:53 PM 78.1 °F 64.9 °F 64% 30.03 in 8.0 mi SE 24.2 mph 29.9 mph 0.00 in Rain Light Rain
1:53 PM 77.0 °F 64.9 °F 66% 30.00 in 9.0 mi SE 26.5 mph 31.1 mph 0.00 in Rain Light Rain
2:53 PM 75.0 °F 64.0 °F 69% 30.01 in 9.0 mi SE 23.0 mph 29.9 mph 0.00 in Rain Light Rain
3:14 PM 75.2 °F 64.4 °F 69% 30.00 in 9.0 mi ESE 20.7 mph 29.9 mph 0.00 in Rain Light Rain
3:49 PM 73.4 °F 64.4 °F 73% 29.99 in 9.0 mi ESE 18.4 mph 27.6 mph 0.00 in Rain Light Rain
3:53 PM 73.9 °F 64.9 °F 73% 30.00 in 9.0 mi ESE 16.1 mph 26.5 mph 0.00 in   Overcast
4:04 PM 73.4 °F 64.4 °F 73% 30.00 in 8.0 mi ESE 19.6 mph 25.3 mph N/A   Overcast
4:53 PM 73.0 °F 64.0 °F 73% 30.01 in 8.0 mi ESE 19.6 mph - N/A   Overcast
5:53 PM 72.0 °F 64.0 °F 76% 30.03 in 8.0 mi ESE 15.0 mph - N/A   Mostly Cloudy
6:53 PM 72.0 °F 64.0 °F 76% 30.03 in 9.0 mi East 12.7 mph - N/A   Mostly Cloudy
7:53 PM 71.1 °F 64.9 °F 81% 30.04 in 8.0 mi ESE 12.7 mph - N/A   Partly Cloudy
8:53 PM 71.1 °F 64.0 °F 78% 30.06 in 9.0 mi SE 13.8 mph - N/A   Mostly Cloudy
9:53 PM 71.1 °F 64.9 °F 81% 30.05 in 8.0 mi SE 12.7 mph - N/A   Clear
10:53 PM 72.0 °F 64.0 °F 76% 30.04 in 9.0 mi SE 16.1 mph - N/A   Mostly Cloudy
11:53 PM 72.0 °F 64.9 °F 78% 30.02 in 9.0 mi SSE 16.1 mph 24.2 mph 0.00 in   Clear